Time,TemperatureF,DewpointF,PressureIn,WindDirection,WindDirectionDegrees,WindSpeedMPH,WindSpeedGustMPH,Humidity,HourlyPrecipIn,Conditions,Clouds,dailyrainin,SolarRadiationWatts/m^2,SoftwareType,DateUTC
2013-07-02 00:05:00,92.2,58.5,29.26,SSW,209,8.3,10.4,32,-99.99,,,0.00,0,rob ver 1A,2013-07-02 07:05:00,
2013-07-02 00:10:00,91.9,58.6,29.26,SSW,210,8.9,11.5,32,-99.99,,,0.00,0,rob ver 1A,2013-07-02 07:10:00,
2013-07-02 00:16:00,91.8,58.5,29.26,SSW,209,9.8,11.7,32,-99.99,,,0.00,0,rob ver 1A,2013-07-02 07:16:00,
2013-07-02 00:22:00,91.7,58.2,29.26,SSW,212,10.3,13.0,32,-99.99,,,0.00,0,rob ver 1A,2013-07-02 07:22:00,
2013-07-02 00:27:00,91.7,57.9,29.26,SSW,208,9.8,11.1,32,-99.99,,,0.00,0,rob ver 1A,2013-07-02 07:27:00,
2013-07-02 00:33:00,91.6,57.8,29.26,SSW,205,8.0,9.8,32,-99.99,,,0.00,0,rob ver 1A,2013-07-02 07:33:00,
2013-07-02 00:38:00,91.5,57.5,29.26,SSW,207,7.3,8.9,31,-99.99,,,0.00,0,rob ver 1A,2013-07-02 07:38:00,
2013-07-02 00:44:00,91.4,57.5,29.26,SSW,198,7.9,9.2,32,-99.99,,,0.00,0,rob ver 1A,2013-07-02 07:44:00,
2013-07-02 00:50:00,91.3,57.2,29.26,SSW,200,9.0,11.4,31,-99.99,,,0.00,0,rob ver 1A,2013-07-02 07:50:00,
2013-07-02 00:55:00,91.2,57.0,29.26,SSW,204,7.8,10.3,31,-99.99,,,0.00,0,rob ver 1A,2013-07-02 07:55:00,
2013-07-02 01:01:00,91.3,56.9,29.26,SSW,200,7.7,9.2,31,-99.99,,,0.00,0,rob ver 1A,2013-07-02 08:01:00,
2013-07-02 01:06:00,91.2,56.8,29.26,SSW,201,7.2,8.9,31,-99.99,,,0.00,0,rob ver 1A,2013-07-02 08:06:00,
2013-07-02 01:12:00,91.1,56.8,29.26,SSW,204,7.3,8.3,31,-99.99,,,0.00,0,rob ver 1A,2013-07-02 08:12:00,
2013-07-02 01:18:00,90.9,56.8,29.26,SSW,196,6.7,9.2,31,-99.99,,,0.00,0,rob ver 1A,2013-07-02 08:18:00,
2013-07-02 01:23:00,91.1,56.7,29.26,SSW,192,6.3,8.1,31,-99.99,,,0.00,0,rob ver 1A,2013-07-02 08:23:00,
2013-07-02 01:29:00,91.1,56.5,29.26,SSW,200,5.6,7.0,31,-99.99,,,0.00,0,rob ver 1A,2013-07-02 08:29:00,
2013-07-02 01:34:00,91.0,56.5,29.26,SSW,197,3.7,4.7,31,-99.99,,,0.00,0,rob ver 1A,2013-07-02 08:34:00,
2013-07-02 01:40:00,90.9,56.5,29.26,SSW,208,2.7,3.2,31,-99.99,,,0.00,0,rob ver 1A,2013-07-02 08:40:00,
2013-07-02 01:46:00,90.8,56.3,29.26,West,265,2.2,2.6,31,-99.99,,,0.00,0,rob ver 1A,2013-07-02 08:46:00,
2013-07-02 01:51:00,90.7,56.3,29.26,WNW,298,1.9,2.3,31,-99.99,,,0.00,0,rob ver 1A,2013-07-02 08:51:00,
2013-07-02 01:57:00,90.7,56.2,29.26,NW,318,3.7,4.5,31,-99.99,,,0.00,0,rob ver 1A,2013-07-02 08:57:00,
2013-07-02 02:02:00,91.3,56.2,29.26,West,271,3.5,4.9,30,-99.99,,,0.00,0,rob ver 1A,2013-07-02 09:02:00,
2013-07-02 02:08:00,91.6,56.0,29.26,SW,222,4.3,5.7,30,-99.99,,,0.00,0,rob ver 1A,2013-07-02 09:08:00,
2013-07-02 02:14:00,91.7,56.0,29.26,SSW,194,3.0,4.3,30,-99.99,,,0.00,0,rob ver 1A,2013-07-02 09:14:00,
2013-07-02 02:20:00,91.5,56.0,29.26,SSW,195,2.3,2.6,30,-99.99,,,0.00,0,rob ver 1A,2013-07-02 09:20:00,
2013-07-02 02:25:00,91.2,55.9,29.26,North,356,1.1,1.5,30,-99.99,,,0.00,0,rob ver 1A,2013-07-02 09:25:00,
2013-07-02 02:31:00,90.9,55.7,29.26,NNW,340,2.2,2.5,30,-99.99,,,0.00,0,rob ver 1A,2013-07-02 09:31:00,
2013-07-02 02:36:00,90.7,55.9,29.26,NNW,344,1.2,1.4,30,-99.99,,,0.00,0,rob ver 1A,2013-07-02 09:36:00,
2013-07-02 02:42:00,90.9,55.9,29.26,NNW,337,1.3,1.6,30,-99.99,,,0.00,0,rob ver 1A,2013-07-02 09:42:00,
2013-07-02 02:47:00,90.6,55.7,29.26,NNW,346,3.3,3.5,30,-99.99,,,0.00,0,rob ver 1A,2013-07-02 09:47:00,
2013-07-02 02:53:00,90.3,55.6,29.26,NNW,333,3.3,3.7,30,-99.99,,,0.00,0,rob ver 1A,2013-07-02 09:53:00,
2013-07-02 02:59:00,90.6,55.6,29.26,WNW,292,1.5,1.9,30,-99.99,,,0.00,0,rob ver 1A,2013-07-02 09:59:00,
2013-07-02 03:04:00,90.8,55.4,29.26,SW,235,2.5,2.8,30,-99.99,,,0.00,0,rob ver 1A,2013-07-02 10:04:00,
2013-07-02 03:10:00,90.4,55.3,29.26,NW,316,2.5,2.9,30,-99.99,,,0.00,0,rob ver 1A,2013-07-02 10:10:00,
2013-07-02 03:15:00,90.5,55.3,29.26,NNW,347,2.7,3.4,30,-99.99,,,0.00,0,rob ver 1A,2013-07-02 10:15:00,
2013-07-02 03:21:00,90.6,55.3,29.26,SSW,206,2.0,3.4,30,-99.99,,,0.00,0,rob ver 1A,2013-07-02 10:21:00,
2013-07-02 03:27:00,91.7,54.6,29.26,SSE,166,5.8,7.0,28,-99.99,,,0.00,0,rob ver 1A,2013-07-02 10:27:00,
2013-07-02 03:32:00,91.1,54.9,29.26,South,173,7.3,8.1,29,-99.99,,,0.00,0,rob ver 1A,2013-07-02 10:32:00,
2013-07-02 03:38:00,90.4,55.5,29.26,South,178,7.1,8.3,30,-99.99,,,0.00,0,rob ver 1A,2013-07-02 10:38:00,
2013-07-02 03:43:00,90.2,55.8,29.26,South,180,8.2,9.5,31,-99.99,,,0.00,0,rob ver 1A,2013-07-02 10:43:00,
2013-07-02 03:49:00,90.2,55.8,29.26,South,173,8.9,10.1,31,-99.99,,,0.00,0,rob ver 1A,2013-07-02 10:49:00,
2013-07-02 03:55:00,89.8,55.9,29.26,South,173,9.6,11.5,31,-99.99,,,0.00,0,rob ver 1A,2013-07-02 10:55:00,
2013-07-02 04:00:00,89.8,55.8,29.26,South,172,9.9,11.4,31,-99.99,,,0.00,0,rob ver 1A,2013-07-02 11:00:00,
2013-07-02 04:06:00,89.7,55.8,29.26,South,178,11.7,13.7,31,-99.99,,,0.00,0,rob ver 1A,2013-07-02 11:06:00,
2013-07-02 04:12:00,89.3,55.9,29.26,South,173,8.0,9.3,32,-99.99,,,0.00,0,rob ver 1A,2013-07-02 11:12:00,
2013-07-02 04:18:00,89.5,55.2,29.26,South,177,10.3,13.0,31,-99.99,,,0.00,0,rob ver 1A,2013-07-02 11:18:00,
2013-07-02 04:23:00,89.9,55.1,29.26,South,174,11.4,14.1,30,-99.99,,,0.00,0,rob ver 1A,2013-07-02 11:23:00,
2013-07-02 04:29:00,89.9,54.6,29.26,South,179,10.7,13.0,30,-99.99,,,0.00,0,rob ver 1A,2013-07-02 11:29:00,
2013-07-02 04:35:00,90.0,53.9,29.26,South,175,13.0,17.1,29,-99.99,,,0.00,0,rob ver 1A,2013-07-02 11:35:00,
2013-07-02 04:40:00,90.1,53.3,29.29,South,177,11.9,13.7,28,-99.99,,,0.00,0,rob ver 1A,2013-07-02 11:40:00,
2013-07-02 04:46:00,89.7,53.4,29.29,South,180,7.7,10.1,29,-99.99,,,0.00,0,rob ver 1A,2013-07-02 11:46:00,
2013-07-02 04:51:00,90.1,53.2,29.29,SE,146,4.2,6.3,28,-99.99,,,0.00,0,rob ver 1A,2013-07-02 11:51:00,
2013-07-02 04:56:00,89.9,53.2,29.32,NW,314,2.6,3.3,28,-99.99,,,0.00,0,rob ver 1A,2013-07-02 11:56:00,
2013-07-02 05:02:00,89.3,53.5,29.32,NW,324,3.9,4.5,29,-99.99,,,0.00,0,rob ver 1A,2013-07-02 12:02:00,
2013-07-02 05:08:00,89.0,53.5,29.32,WNW,301,3.0,3.8,30,-99.99,,,0.00,0,rob ver 1A,2013-07-02 12:08:00,
2013-07-02 05:13:00,88.6,53.7,29.32,West,275,5.6,6.6,30,-99.99,,,0.00,0,rob ver 1A,2013-07-02 12:13:00,
2013-07-02 05:19:00,88.0,54.1,29.32,WSW,256,6.5,7.7,31,-99.99,,,0.00,.164,rob ver 1A,2013-07-02 12:19:00,
2013-07-02 05:24:00,87.9,54.3,29.32,WSW,241,4.9,5.9,31,-99.99,,,0.00,.983,rob ver 1A,2013-07-02 12:24:00,
2013-07-02 05:30:00,87.9,54.7,29.32,SW,232,4.7,5.5,32,-99.99,,,0.00,1.802,rob ver 1A,2013-07-02 12:30:00,
2013-07-02 05:36:00,87.7,54.8,29.32,SW,218,1.9,2.7,32,-99.99,,,0.00,2.294,rob ver 1A,2013-07-02 12:36:00,
2013-07-02 05:41:00,87.6,54.5,29.32,SE,129,2.0,2.5,32,-99.99,,,0.00,4.096,rob ver 1A,2013-07-02 12:41:00,
2013-07-02 05:47:00,87.4,54.2,29.35,East,99,3.2,4.0,32,-99.99,,,0.00,6.226,rob ver 1A,2013-07-02 12:47:00,
2013-07-02 05:52:00,87.4,54.1,29.35,ENE,78,2.2,2.6,32,-99.99,,,0.00,9.5,rob ver 1A,2013-07-02 12:52:00,
2013-07-02 05:58:00,88.0,53.9,29.35,SE,132,2.6,3.1,31,-99.99,,,0.00,16.22,rob ver 1A,2013-07-02 12:58:00,
2013-07-02 06:04:00,88.6,53.4,29.35,ESE,111,1.6,1.9,30,-99.99,,,0.00,32.11,rob ver 1A,2013-07-02 13:04:00,
2013-07-02 06:09:00,89.1,52.7,29.35,South,177,6.1,8.2,28,-99.99,,,0.00,43.58,rob ver 1A,2013-07-02 13:09:00,
2013-07-02 06:15:00,90.0,52.9,29.35,SSW,193,4.8,5.8,28,-99.99,,,0.00,53.09,rob ver 1A,2013-07-02 13:15:00,
2013-07-02 06:21:00,90.1,54.5,29.35,SSW,202,4.2,5.6,30,-99.99,,,0.00,55.71,rob ver 1A,2013-07-02 13:21:00,
2013-07-02 06:26:00,90.4,55.0,29.35,ESE,111,2.8,3.5,30,-99.99,,,0.00,56.04,rob ver 1A,2013-07-02 13:26:00,
2013-07-02 06:32:00,90.3,54.3,29.35,ENE,69,2.5,3.1,29,-99.99,,,0.00,62.26,rob ver 1A,2013-07-02 13:32:00,
2013-07-02 06:38:00,89.8,54.2,29.35,NNE,19,8.9,10.2,30,-99.99,,,0.00,61.61,rob ver 1A,2013-07-02 13:38:00,
2013-07-02 06:43:00,89.6,54.4,29.38,NNE,18,8.5,9.6,30,-99.99,,,0.00,55.71,rob ver 1A,2013-07-02 13:43:00,
2013-07-02 06:49:00,89.4,54.6,29.38,NNE,26,7.1,8.1,30,-99.99,,,0.00,55.22,rob ver 1A,2013-07-02 13:49:00,
2013-07-02 06:55:00,90.0,54.1,29.38,NE,37,9.4,11.3,29,-99.99,,,0.00,52.76,rob ver 1A,2013-07-02 13:55:00,
2013-07-02 07:01:00,90.3,54.1,29.41,NE,49,7.0,9.7,29,-99.99,,,0.00,63.57,rob ver 1A,2013-07-02 14:01:00,
2013-07-02 07:06:00,90.4,54.6,29.41,ENE,64,9.4,11.5,29,-99.99,,,0.00,85.5,rob ver 1A,2013-07-02 14:06:00,
2013-07-02 07:12:00,91.3,57.9,29.41,ENE,69,20.3,25.2,32,-99.99,,,0.00,93.1,rob ver 1A,2013-07-02 14:12:00,
2013-07-02 07:18:00,90.5,61.3,29.41,East,83,22.3,31.8,37,-99.99,,,0.00,221.5,rob ver 1A,2013-07-02 14:18:00,
2013-07-02 07:23:00,91.3,60.1,29.41,East,86,21.9,26.2,34,-99.99,,,0.00,273.3,rob ver 1A,2013-07-02 14:23:00,
2013-07-02 07:29:00,91.5,59.1,29.41,East,83,19.1,24.7,33,-99.99,,,0.00,335.2,rob ver 1A,2013-07-02 14:29:00,
2013-07-02 07:34:00,91.9,59.7,29.41,East,81,16.5,23.9,34,-99.99,,,0.00,390.6,rob ver 1A,2013-07-02 14:34:00,
2013-07-02 07:40:00,92.2,59.6,29.41,East,82,19.6,24.7,33,-99.99,,,0.00,190.1,rob ver 1A,2013-07-02 14:40:00,
2013-07-02 07:46:00,92.1,60.0,29.44,East,80,20.5,25.3,34,-99.99,,,0.00,158.1,rob ver 1A,2013-07-02 14:46:00,
2013-07-02 07:52:00,91.9,59.7,29.44,East,81,18.6,25.1,34,-99.99,,,0.00,147.5,rob ver 1A,2013-07-02 14:52:00,
2013-07-02 07:57:00,92.2,58.8,29.44,East,99,17.4,22.1,32,-99.99,,,0.00,165.3,rob ver 1A,2013-07-02 14:57:00,
2013-07-02 08:03:00,92.0,60.0,29.44,ENE,77,17.8,22.5,34,-99.99,,,0.00,272.9,rob ver 1A,2013-07-02 15:03:00,
2013-07-02 08:09:00,92.7,60.0,29.44,East,89,15.1,17.9,33,-99.99,,,0.00,208.1,rob ver 1A,2013-07-02 15:09:00,
2013-07-02 08:15:00,92.8,59.8,29.44,East,88,13.4,17.6,33,-99.99,,,0.00,171.4,rob ver 1A,2013-07-02 15:15:00,
2013-07-02 08:20:00,92.4,60.2,29.44,East,83,11.4,14.9,34,-99.99,,,0.00,174,rob ver 1A,2013-07-02 15:20:00,
2013-07-02 08:25:00,92.6,59.9,29.44,East,93,11.2,14.3,33,-99.99,,,0.00,165.4,rob ver 1A,2013-07-02 15:25:00,
2013-07-02 08:31:00,92.4,59.5,29.44,East,91,13.3,15.2,33,-99.99,,,0.00,174.6,rob ver 1A,2013-07-02 15:31:00,
2013-07-02 08:37:00,92.5,59.6,29.44,ESE,105,10.9,13.9,33,-99.99,,,0.00,194.9,rob ver 1A,2013-07-02 15:37:00,
2013-07-02 08:43:00,92.5,59.6,29.44,ESE,116,10.9,14.2,33,-99.99,,,0.00,213.4,rob ver 1A,2013-07-02 15:43:00,
2013-07-02 08:48:00,93.2,59.1,29.41,SE,141,12.6,15.9,32,-99.99,,,0.00,242.1,rob ver 1A,2013-07-02 15:48:00,
2013-07-02 08:53:00,92.9,59.2,29.41,SE,139,16.9,20.0,32,-99.99,,,0.00,543.4,rob ver 1A,2013-07-02 15:53:00,
2013-07-02 08:59:00,93.3,59.7,29.41,SE,140,12.0,16.3,32,-99.99,,,0.00,426.2,rob ver 1A,2013-07-02 15:59:00,
2013-07-02 09:04:00,94.2,59.4,29.41,SSE,153,11.5,14.0,31,-99.99,,,0.00,365.6,rob ver 1A,2013-07-02 16:04:00,
2013-07-02 09:10:00,93.7,59.2,29.41,SSE,154,11.1,14.1,31,-99.99,,,0.00,255.3,rob ver 1A,2013-07-02 16:10:00,
2013-07-02 09:16:00,94.0,58.6,29.41,SSE,166,12.2,15.3,30,-99.99,,,0.00,224,rob ver 1A,2013-07-02 16:16:00,
2013-07-02 09:21:00,93.4,58.9,29.38,South,172,13.7,15.4,31,-99.99,,,0.00,245.3,rob ver 1A,2013-07-02 16:21:00,
2013-07-02 09:27:00,93.7,59.0,29.38,South,186,14.1,17.2,31,-99.99,,,0.00,257.1,rob ver 1A,2013-07-02 16:27:00,
2013-07-02 09:32:00,94.0,59.0,29.38,SSW,201,15.0,19.0,30,-99.99,,,0.00,333.8,rob ver 1A,2013-07-02 16:32:00,
2013-07-02 09:38:00,94.9,58.3,29.38,South,190,10.7,14.1,29,-99.99,,,0.00,367.5,rob ver 1A,2013-07-02 16:38:00,
2013-07-02 09:44:00,95.3,57.7,29.41,South,170,11.1,15.7,28,-99.99,,,0.00,354.7,rob ver 1A,2013-07-02 16:44:00,
2013-07-02 09:49:00,96.4,56.7,29.41,SSE,153,14.3,18.0,26,-99.99,,,0.00,429.7,rob ver 1A,2013-07-02 16:49:00,
2013-07-02 09:55:00,96.0,57.4,29.41,SSE,168,9.9,12.2,27,-99.99,,,0.00,519.1,rob ver 1A,2013-07-02 16:55:00,
2013-07-02 10:00:00,96.1,57.4,29.41,ESE,115,7.0,8.9,27,-99.99,,,0.00,365.2,rob ver 1A,2013-07-02 17:00:00,
2013-07-02 10:06:00,96.2,57.9,29.41,NE,34,5.8,7.9,28,-99.99,,,0.00,463.1,rob ver 1A,2013-07-02 17:06:00,
2013-07-02 10:12:00,96.9,57.8,29.41,East,87,4.2,6.1,27,-99.99,,,0.00,666,rob ver 1A,2013-07-02 17:12:00,
2013-07-02 10:17:00,97.8,57.8,29.38,ESE,118,4.5,5.9,26,-99.99,,,0.00,752,rob ver 1A,2013-07-02 17:17:00,
2013-07-02 10:23:00,97.5,57.9,29.38,East,93,5.4,8.8,26,-99.99,,,0.00,576.4,rob ver 1A,2013-07-02 17:23:00,
2013-07-02 10:29:00,97.6,57.2,29.38,ESE,108,7.0,10.2,26,-99.99,,,0.00,653.4,rob ver 1A,2013-07-02 17:29:00,
2013-07-02 10:34:00,98.1,57.2,29.38,SE,131,8.8,10.5,26,-99.99,,,0.00,777,rob ver 1A,2013-07-02 17:34:00,
2013-07-02 10:40:00,98.3,56.6,29.38,SE,124,7.4,9.6,25,-99.99,,,0.00,667.1,rob ver 1A,2013-07-02 17:40:00,
2013-07-02 10:46:00,98.0,56.0,29.38,SE,146,11.0,14.2,24,-99.99,,,0.00,710,rob ver 1A,2013-07-02 17:46:00,
2013-07-02 10:51:00,98.9,56.0,29.38,SE,130,11.8,16.4,23,-99.99,,,0.00,557.7,rob ver 1A,2013-07-02 17:51:00,
2013-07-02 10:57:00,100.1,55.6,29.38,SE,144,12.2,15.7,22,-99.99,,,0.00,596.9,rob ver 1A,2013-07-02 17:57:00,
2013-07-02 11:02:00,100.1,55.1,29.38,SSE,149,13.6,17.6,22,-99.99,,,0.00,492.8,rob ver 1A,2013-07-02 18:02:00,
2013-07-02 11:08:00,100.6,54.5,29.38,SSE,159,16.3,21.8,21,-99.99,,,0.00,518.3,rob ver 1A,2013-07-02 18:08:00,
2013-07-02 11:13:00,100.8,55.1,29.38,SSE,159,14.4,18.8,21,-99.99,,,0.00,727,rob ver 1A,2013-07-02 18:13:00,
2013-07-02 11:19:00,100.8,54.6,29.38,South,178,18.8,24.6,21,-99.99,,,0.00,1046,rob ver 1A,2013-07-02 18:19:00,
2013-07-02 11:25:00,101.2,55.8,29.38,South,184,18.3,23.0,22,-99.99,,,0.00,740,rob ver 1A,2013-07-02 18:25:00,
2013-07-02 11:31:00,101.9,54.9,29.38,South,170,23.2,28.8,21,-99.99,,,0.00,939,rob ver 1A,2013-07-02 18:31:00,
2013-07-02 11:36:00,101.0,56.0,29.38,SSE,167,17.8,21.8,22,-99.99,,,0.00,868,rob ver 1A,2013-07-02 18:36:00,
2013-07-02 11:42:00,101.1,55.7,29.38,SSE,167,21.5,26.0,22,-99.99,,,0.00,909,rob ver 1A,2013-07-02 18:42:00,
2013-07-02 11:47:00,100.8,55.5,29.35,South,177,23.8,28.3,22,-99.99,,,0.00,972,rob ver 1A,2013-07-02 18:47:00,
2013-07-02 11:53:00,101.0,56.5,29.38,SSE,168,19.6,27.4,23,-99.99,,,0.00,956,rob ver 1A,2013-07-02 18:53:00,
2013-07-02 11:59:00,100.5,56.3,29.35,SSE,158,21.8,27.1,23,-99.99,,,0.00,935,rob ver 1A,2013-07-02 18:59:00,
2013-07-02 12:04:00,101.1,54.9,29.38,SSE,164,17.3,22.1,21,-99.99,,,0.00,941,rob ver 1A,2013-07-02 19:04:00,
2013-07-02 12:10:00,102.2,54.1,29.35,South,173,22.6,27.6,21,-99.99,,,0.00,971,rob ver 1A,2013-07-02 19:10:00,
2013-07-02 12:15:00,101.5,56.5,29.35,South,190,18.1,21.5,22,-99.99,,,0.00,965,rob ver 1A,2013-07-02 19:15:00,
2013-07-02 12:21:00,101.6,56.1,29.35,South,190,18.5,23.2,22,-99.99,,,0.00,967,rob ver 1A,2013-07-02 19:21:00,
2013-07-02 12:27:00,101.7,55.7,29.35,South,174,20.7,25.3,21,-99.99,,,0.00,922,rob ver 1A,2013-07-02 19:27:00,
2013-07-02 12:32:00,102.1,56.3,29.35,South,173,13.9,22.5,22,-99.99,,,0.00,847,rob ver 1A,2013-07-02 19:32:00,
2013-07-02 12:38:00,101.7,56.1,29.35,South,177,17.9,23.8,22,-99.99,,,0.00,923,rob ver 1A,2013-07-02 19:38:00,
2013-07-02 12:44:00,102.2,55.6,29.35,SSE,166,18.4,27.2,21,-99.99,,,0.00,958,rob ver 1A,2013-07-02 19:44:00,
2013-07-02 12:49:00,103.0,56.3,29.35,South,190,18.1,24.6,21,-99.99,,,0.00,961,rob ver 1A,2013-07-02 19:49:00,
2013-07-02 12:55:00,103.5,55.9,29.35,SSW,204,14.8,18.5,21,-99.99,,,0.00,950,rob ver 1A,2013-07-02 19:55:00,
2013-07-02 13:00:00,103.9,55.1,29.35,SSE,163,12.8,17.9,20,-99.99,,,0.00,941,rob ver 1A,2013-07-02 20:00:00,
2013-07-02 13:06:00,103.9,53.3,29.35,South,188,18.0,23.8,18,-99.99,,,0.00,971,rob ver 1A,2013-07-02 20:06:00,
2013-07-02 13:12:00,104.6,54.3,29.35,South,190,16.6,21.5,19,-99.99,,,0.00,968,rob ver 1A,2013-07-02 20:12:00,
2013-07-02 13:17:00,104.4,54.4,29.32,SSW,201,16.0,22.3,19,-99.99,,,0.00,966,rob ver 1A,2013-07-02 20:17:00,
2013-07-02 13:23:00,104.8,55.1,29.35,SSW,194,16.2,22.4,19,-99.99,,,0.00,957,rob ver 1A,2013-07-02 20:23:00,
2013-07-02 13:28:00,104.4,54.9,29.32,South,189,16.6,21.4,19,-99.99,,,0.00,957,rob ver 1A,2013-07-02 20:28:00,
2013-07-02 13:34:00,104.7,55.8,29.32,South,191,20.2,23.7,20,-99.99,,,0.00,955,rob ver 1A,2013-07-02 20:34:00,
2013-07-02 13:40:00,104.3,55.1,29.32,South,171,14.1,19.0,19,-99.99,,,0.00,938,rob ver 1A,2013-07-02 20:40:00,
2013-07-02 13:45:00,104.1,54.6,29.32,SW,215,16.5,22.2,19,-99.99,,,0.00,932,rob ver 1A,2013-07-02 20:45:00,
2013-07-02 13:51:00,104.0,54.0,29.32,South,169,16.1,22.7,18,-99.99,,,0.00,940,rob ver 1A,2013-07-02 20:51:00,
2013-07-02 13:57:00,104.6,53.3,29.32,South,185,15.9,23.3,18,-99.99,,,0.00,937,rob ver 1A,2013-07-02 20:57:00,
2013-07-02 14:02:00,105.1,53.4,29.32,South,190,15.7,19.4,18,-99.99,,,0.00,898,rob ver 1A,2013-07-02 21:02:00,
2013-07-02 14:08:00,105.4,53.9,29.32,SSW,195,14.7,20.6,18,-99.99,,,0.00,850,rob ver 1A,2013-07-02 21:08:00,
2013-07-02 14:13:00,105.6,52.7,29.32,South,189,17.3,22.1,17,-99.99,,,0.00,870,rob ver 1A,2013-07-02 21:13:00,
2013-07-02 14:19:00,106.0,52.4,29.32,SSW,194,19.7,23.8,16,-99.99,,,0.00,909,rob ver 1A,2013-07-02 21:19:00,
2013-07-02 14:25:00,105.4,52.3,29.32,South,182,14.9,21.6,17,-99.99,,,0.00,906,rob ver 1A,2013-07-02 21:25:00,
2013-07-02 14:30:00,105.5,52.0,29.29,SSW,199,17.1,22.6,17,-99.99,,,0.00,896,rob ver 1A,2013-07-02 21:30:00,
2013-07-02 14:36:00,106.0,51.9,29.29,South,186,15.8,21.3,16,-99.99,,,0.00,884,rob ver 1A,2013-07-02 21:36:00,
2013-07-02 14:42:00,105.2,52.7,29.29,SSW,199,14.0,18.1,17,-99.99,,,0.00,865,rob ver 1A,2013-07-02 21:42:00,
2013-07-02 14:47:00,106.3,51.6,29.29,South,186,16.5,22.3,16,-99.99,,,0.00,846,rob ver 1A,2013-07-02 21:47:00,
2013-07-02 14:53:00,105.9,51.3,29.29,South,182,15.8,20.4,16,-99.99,,,0.00,840,rob ver 1A,2013-07-02 21:53:00,
2013-07-02 14:58:00,106.4,53.2,29.29,SSW,209,14.6,19.6,17,-99.99,,,0.00,828,rob ver 1A,2013-07-02 21:58:00,
2013-07-02 15:04:00,106.3,51.2,29.29,SW,217,17.1,19.0,16,-99.99,,,0.00,816,rob ver 1A,2013-07-02 22:04:00,
2013-07-02 15:10:00,107.0,52.6,29.29,SSW,197,12.7,16.6,16,-99.99,,,0.00,804,rob ver 1A,2013-07-02 22:10:00,
2013-07-02 15:15:00,106.5,51.5,29.29,SSW,192,15.5,18.9,16,-99.99,,,0.00,795,rob ver 1A,2013-07-02 22:15:00,
2013-07-02 15:21:00,106.8,51.7,29.29,SSW,212,15.7,20.1,16,-99.99,,,0.00,782,rob ver 1A,2013-07-02 22:21:00,
2013-07-02 15:27:00,106.6,51.6,29.29,South,177,12.0,14.1,16,-99.99,,,0.00,772,rob ver 1A,2013-07-02 22:27:00,
2013-07-02 15:32:00,107.6,51.9,29.26,South,186,15.0,18.4,16,-99.99,,,0.00,756,rob ver 1A,2013-07-02 22:32:00,
2013-07-02 15:38:00,106.8,52.5,29.26,SSW,197,12.3,17.1,16,-99.99,,,0.00,741,rob ver 1A,2013-07-02 22:38:00,
2013-07-02 15:44:00,107.6,50.7,29.26,South,180,14.2,18.0,15,-99.99,,,0.00,726,rob ver 1A,2013-07-02 22:44:00,
2013-07-02 15:49:00,107.2,50.6,29.26,SSW,207,15.7,19.3,15,-99.99,,,0.00,707,rob ver 1A,2013-07-02 22:49:00,
2013-07-02 15:55:00,107.2,50.8,29.26,SSW,194,10.1,14.2,15,-99.99,,,0.00,692.7,rob ver 1A,2013-07-02 22:55:00,
2013-07-02 16:00:00,107.4,49.6,29.26,SSW,199,10.8,14.5,14,-99.99,,,0.00,675.9,rob ver 1A,2013-07-02 23:00:00,
2013-07-02 16:06:00,107.6,50.1,29.26,SSW,198,14.7,18.7,14,-99.99,,,0.00,659.7,rob ver 1A,2013-07-02 23:06:00,
2013-07-02 16:12:00,107.9,48.8,29.23,SSW,192,15.7,22.0,14,-99.99,,,0.00,634,rob ver 1A,2013-07-02 23:12:00,
2013-07-02 16:18:00,108.1,48.7,29.23,SSW,196,16.8,19.7,13,-99.99,,,0.00,622.2,rob ver 1A,2013-07-02 23:18:00,
2013-07-02 16:23:00,107.6,48.6,29.23,SSW,204,15.6,19.4,14,-99.99,,,0.00,613.7,rob ver 1A,2013-07-02 23:23:00,
2013-07-02 16:29:00,106.9,48.8,29.23,South,187,13.3,15.7,14,-99.99,,,0.00,592.6,rob ver 1A,2013-07-02 23:29:00,
2013-07-02 16:32:00,107.2,47.2,29.23,South,169,17.5,20.1,13,-99.99,,,0.00,587,rob ver 1A,2013-07-02 23:32:00,
2013-07-02 16:37:00,108.0,48.1,29.23,South,181,17.1,19.8,13,-99.99,,,0.00,568.6,rob ver 1A,2013-07-02 23:37:00,
2013-07-02 16:42:00,107.4,49.0,29.23,South,176,12.9,16.8,14,-99.99,,,0.00,546,rob ver 1A,2013-07-02 23:42:00,
2013-07-02 16:47:00,107.8,49.1,29.23,South,184,13.6,18.2,14,-99.99,,,0.00,534.2,rob ver 1A,2013-07-02 23:47:00,
2013-07-02 16:53:00,107.0,49.1,29.23,SSE,163,12.0,15.1,14,-99.99,,,0.00,516.5,rob ver 1A,2013-07-02 23:53:00,
2013-07-02 16:59:00,107.7,48.3,29.23,SSE,166,14.0,16.8,13,-99.99,,,0.00,500.2,rob ver 1A,2013-07-02 23:59:00,
2013-07-02 17:02:00,107.1,47.9,29.23,South,182,11.5,13.9,14,-99.99,,,0.00,489.8,rob ver 1A,2013-07-03 00:02:00,
2013-07-02 17:08:00,108.0,48.7,29.23,SW,214,13.5,16.6,14,-99.99,,,0.00,468.1,rob ver 1A,2013-07-03 00:08:00,
2013-07-02 17:13:00,108.2,48.8,29.23,SSW,201,13.4,15.6,13,-99.99,,,0.00,447.1,rob ver 1A,2013-07-03 00:13:00,
2013-07-02 17:14:00,108.3,48.9,29.23,South,189,11.8,15.0,14,-99.99,,,0.00,445,rob ver 1A,2013-07-03 00:14:00,
2013-07-02 17:20:00,108.4,48.7,29.21,SSW,205,12.6,16.8,13,-99.99,,,0.00,428,rob ver 1A,2013-07-03 00:20:00,
2013-07-02 17:26:00,107.9,48.8,29.21,SSW,192,11.4,14.2,14,-99.99,,,0.00,409.2,rob ver 1A,2013-07-03 00:26:00,
2013-07-02 17:28:00,108.4,48.8,29.21,SSW,197,12.6,15.6,13,-99.99,,,0.00,401.3,rob ver 1A,2013-07-03 00:28:00,
2013-07-02 17:33:00,107.9,50.1,29.21,South,182,14.4,17.4,14,-99.99,,,0.00,378.6,rob ver 1A,2013-07-03 00:33:00,
2013-07-02 17:39:00,107.6,50.3,29.21,SSW,198,11.4,15.1,15,-99.99,,,0.00,361.6,rob ver 1A,2013-07-03 00:39:00,
2013-07-02 17:45:00,107.9,51.1,29.21,SSW,197,12.9,15.9,15,-99.99,,,0.00,336.9,rob ver 1A,2013-07-03 00:45:00,
2013-07-02 17:51:00,107.5,51.7,29.21,SSW,199,14.4,18.1,15,-99.99,,,0.00,320.3,rob ver 1A,2013-07-03 00:51:00,
2013-07-02 17:56:00,107.6,52.0,29.21,South,173,14.1,18.0,16,-99.99,,,0.00,306.6,rob ver 1A,2013-07-03 00:56:00,
2013-07-02 18:01:00,107.3,51.6,29.21,SSW,193,11.0,16.7,16,-99.99,,,0.00,278.3,rob ver 1A,2013-07-03 01:01:00,
2013-07-02 18:07:00,106.8,52.5,29.21,South,180,16.0,20.6,16,-99.99,,,0.00,235.3,rob ver 1A,2013-07-03 01:07:00,
2013-07-02 18:09:00,106.7,52.6,29.21,South,177,15.0,17.2,16,-99.99,,,0.00,243.8,rob ver 1A,2013-07-03 01:09:00,
2013-07-02 18:15:00,107.0,52.5,29.21,South,191,12.9,15.4,16,-99.99,,,0.00,250.2,rob ver 1A,2013-07-03 01:15:00,
2013-07-02 18:21:00,106.4,52.7,29.21,South,172,14.0,16.0,17,-99.99,,,0.00,233.3,rob ver 1A,2013-07-03 01:21:00,
2013-07-02 18:26:00,106.4,51.8,29.23,SSE,168,13.7,16.4,16,-99.99,,,0.00,216.3,rob ver 1A,2013-07-03 01:26:00,
2013-07-02 18:27:00,106.4,52.4,29.23,South,175,13.0,15.4,17,-99.99,,,0.00,213.7,rob ver 1A,2013-07-03 01:27:00,
2013-07-02 18:33:00,106.6,52.6,29.23,South,182,12.9,16.0,17,-99.99,,,0.00,197.3,rob ver 1A,2013-07-03 01:33:00,
2013-07-02 18:39:00,106.4,52.5,29.23,South,173,15.1,18.2,16,-99.99,,,0.00,177.7,rob ver 1A,2013-07-03 01:39:00,
2013-07-02 18:44:00,106.5,50.8,29.23,South,182,13.9,15.8,15,-99.99,,,0.00,159.4,rob ver 1A,2013-07-03 01:44:00,
2013-07-02 18:50:00,106.6,51.8,29.23,SSW,192,12.5,15.6,16,-99.99,,,0.00,146.9,rob ver 1A,2013-07-03 01:50:00,
2013-07-02 18:52:00,106.2,52.1,29.23,South,172,13.4,17.8,16,-99.99,,,0.00,137.1,rob ver 1A,2013-07-03 01:52:00,
2013-07-02 18:58:00,106.3,51.6,29.23,South,187,12.4,14.8,16,-99.99,,,0.00,124.7,rob ver 1A,2013-07-03 01:58:00,
2013-07-02 19:03:00,105.9,51.1,29.21,South,185,13.3,19.9,16,-99.99,,,0.00,105.1,rob ver 1A,2013-07-03 02:03:00,
2013-07-02 19:11:00,106.0,51.3,29.21,South,183,14.0,17.4,16,-99.99,,,0.00,92,rob ver 1A,2013-07-03 02:11:00,
2013-07-02 19:17:00,105.6,50.4,29.21,South,188,13.1,16.1,16,-99.99,,,0.00,71.3,rob ver 1A,2013-07-03 02:17:00,
2013-07-02 19:22:00,105.5,50.1,29.23,South,191,12.6,16.0,15,-99.99,,,0.00,54.82,rob ver 1A,2013-07-03 02:22:00,
2013-07-02 19:29:00,105.1,48.7,29.21,South,191,13.2,17.3,15,-99.99,,,0.00,33.55,rob ver 1A,2013-07-03 02:29:00,
2013-07-02 19:32:00,105.0,49.8,29.23,South,190,11.4,14.9,16,-99.99,,,0.00,26.51,rob ver 1A,2013-07-03 02:32:00,
2013-07-02 19:39:00,104.7,48.1,29.21,SSW,197,10.1,12.6,15,-99.99,,,0.00,10.15,rob ver 1A,2013-07-03 02:39:00,
2013-07-02 19:45:00,104.5,48.2,29.21,SSW,198,11.1,14.6,15,-99.99,,,0.00,5.073,rob ver 1A,2013-07-03 02:45:00,
2013-07-02 19:52:00,104.0,48.6,29.23,SSW,195,7.8,10.0,15,-99.99,,,0.00,2.455,rob ver 1A,2013-07-03 02:52:00,
2013-07-02 19:57:00,103.8,48.3,29.23,SSW,195,7.6,9.2,15,-99.99,,,0.00,1.309,rob ver 1A,2013-07-03 02:57:00,
2013-07-02 20:02:00,103.5,48.0,29.23,SSW,195,5.9,7.1,15,-99.99,,,0.00,.655,rob ver 1A,2013-07-03 03:02:00,
2013-07-02 20:07:00,103.3,47.4,29.23,SSW,196,4.8,6.1,15,-99.99,,,0.00,0,rob ver 1A,2013-07-03 03:07:00,
2013-07-02 20:13:00,103.1,47.2,29.23,South,189,5.1,6.3,15,-99.99,,,0.00,0,rob ver 1A,2013-07-03 03:13:00,
2013-07-02 20:18:00,102.9,47.0,29.23,SSW,196,5.7,6.5,15,-99.99,,,0.00,0,rob ver 1A,2013-07-03 03:18:00,
2013-07-02 20:25:00,102.5,47.0,29.23,SSW,200,4.9,5.3,15,-99.99,,,0.00,0,rob ver 1A,2013-07-03 03:25:00,
2013-07-02 20:30:00,101.8,47.1,29.23,SSW,193,4.4,5.1,15,-99.99,,,0.00,0,rob ver 1A,2013-07-03 03:30:00,
2013-07-02 20:35:00,101.5,46.8,29.23,South,182,3.4,4.5,15,-99.99,,,0.00,0,rob ver 1A,2013-07-03 03:35:00,
2013-07-02 20:40:00,101.0,46.9,29.23,South,187,3.1,3.9,16,-99.99,,,0.00,0,rob ver 1A,2013-07-03 03:40:00,
2013-07-02 20:46:00,100.7,47.5,29.23,South,174,4.0,4.7,16,-99.99,,,0.00,0,rob ver 1A,2013-07-03 03:46:00,
2013-07-02 20:50:00,100.6,48.1,29.23,South,171,4.9,5.6,17,-99.99,,,0.00,0,rob ver 1A,2013-07-03 03:50:00,
2013-07-02 20:55:00,100.7,48.9,29.23,South,182,5.9,7.1,17,-99.99,,,0.00,0,rob ver 1A,2013-07-03 03:55:00,
2013-07-02 21:01:00,100.5,48.7,29.23,South,184,5.1,6.0,17,-99.99,,,0.00,0,rob ver 1A,2013-07-03 04:01:00,
2013-07-02 21:03:00,100.4,48.7,29.23,South,182,5.3,6.3,17,-99.99,,,0.00,0,rob ver 1A,2013-07-03 04:03:00,
2013-07-02 21:09:00,100.3,48.8,29.23,South,178,5.3,6.4,17,-99.99,,,0.00,0,rob ver 1A,2013-07-03 04:09:00,
2013-07-02 21:15:00,100.2,49.0,29.23,South,180,5.3,6.5,18,-99.99,,,0.00,0,rob ver 1A,2013-07-03 04:15:00,
2013-07-02 21:18:00,100.1,49.2,29.23,South,184,4.9,5.8,18,-99.99,,,0.00,0,rob ver 1A,2013-07-03 04:18:00,
2013-07-02 21:24:00,99.8,49.3,29.23,South,181,5.9,7.1,18,-99.99,,,0.00,0,rob ver 1A,2013-07-03 04:24:00,
2013-07-02 21:31:00,99.8,49.7,29.23,South,189,5.8,7.7,18,-99.99,,,0.00,0,rob ver 1A,2013-07-03 04:31:00,
2013-07-02 21:35:00,99.9,49.8,29.23,South,188,5.9,7.2,18,-99.99,,,0.00,0,rob ver 1A,2013-07-03 04:35:00,
2013-07-02 21:41:00,100.0,50.5,29.26,South,185,6.5,8.4,19,-99.99,,,0.00,0,rob ver 1A,2013-07-03 04:41:00,
2013-07-02 21:46:00,100.2,53.1,29.26,South,188,10.6,12.9,21,-99.99,,,0.00,0,rob ver 1A,2013-07-03 04:46:00,
2013-07-02 21:49:00,99.8,54.5,29.26,South,186,11.7,14.2,22,-99.99,,,0.00,0,rob ver 1A,2013-07-03 04:49:00,
2013-07-02 21:54:00,98.6,56.3,29.26,South,180,8.9,11.3,24,-99.99,,,0.00,0,rob ver 1A,2013-07-03 04:54:00,
2013-07-02 22:00:00,98.2,56.8,29.26,South,189,7.4,9.4,25,-99.99,,,0.00,0,rob ver 1A,2013-07-03 05:00:00,
2013-07-02 22:06:00,97.1,57.4,29.26,South,190,10.3,13.0,26,-99.99,,,0.00,0,rob ver 1A,2013-07-03 05:06:00,
2013-07-02 22:07:00,96.9,57.3,29.26,South,190,10.4,13.0,26,-99.99,,,0.00,0,rob ver 1A,2013-07-03 05:07:00,
2013-07-02 22:12:00,96.4,56.5,29.26,South,189,9.9,12.3,26,-99.99,,,0.00,0,rob ver 1A,2013-07-03 05:12:00,
2013-07-02 22:19:00,95.8,57.2,29.26,SSW,193,11.3,13.7,27,-99.99,,,0.00,0,rob ver 1A,2013-07-03 05:19:00,
2013-07-02 22:25:00,95.4,57.9,29.29,SSW,194,9.5,11.3,28,-99.99,,,0.00,0,rob ver 1A,2013-07-03 05:25:00,
2013-07-02 22:30:00,94.7,58.9,29.29,SSW,200,8.1,10.5,30,-99.99,,,0.00,0,rob ver 1A,2013-07-03 05:30:00,
2013-07-02 22:37:00,93.8,60.4,29.29,SSW,197,9.9,13.0,33,-99.99,,,0.00,0,rob ver 1A,2013-07-03 05:37:00,
2013-07-02 22:43:00,93.3,61.3,29.26,SSW,195,11.5,13.6,34,-99.99,,,0.00,0,rob ver 1A,2013-07-03 05:43:00,
2013-07-02 22:48:00,92.8,61.7,29.29,SSW,198,10.9,13.8,35,-99.99,,,0.00,0,rob ver 1A,2013-07-03 05:48:00,
2013-07-02 22:55:00,92.4,62.3,29.26,SSW,193,9.8,12.9,36,-99.99,,,0.00,0,rob ver 1A,2013-07-03 05:55:00,
2013-07-02 23:00:00,92.1,63.1,29.29,SSW,198,10.3,11.6,38,-99.99,,,0.00,0,rob ver 1A,2013-07-03 06:00:00,
2013-07-02 23:02:00,92.0,63.1,29.29,SSW,195,10.1,12.3,38,-99.99,,,0.00,0,rob ver 1A,2013-07-03 06:02:00,
2013-07-02 23:08:00,91.7,63.4,29.29,SSW,204,10.2,12.2,39,-99.99,,,0.00,0,rob ver 1A,2013-07-03 06:08:00,
2013-07-02 23:13:00,91.5,63.4,29.29,SSW,203,8.7,10.4,39,-99.99,,,0.00,0,rob ver 1A,2013-07-03 06:13:00,
2013-07-02 23:19:00,91.3,63.4,29.29,SSW,200,10.8,12.9,39,-99.99,,,0.00,0,rob ver 1A,2013-07-03 06:19:00,
2013-07-02 23:20:00,91.3,63.4,29.29,SSW,205,10.4,12.6,39,-99.99,,,0.00,0,rob ver 1A,2013-07-03 06:20:00,
2013-07-02 23:26:00,91.1,63.0,29.26,SSW,200,9.0,11.9,39,-99.99,,,0.00,0,rob ver 1A,2013-07-03 06:26:00,